Tracking 29892 objects as of 21-Nov-2024
HD Live streaming from Space Station
objects crossing your sky now

DELTA 1 DEB

Track DELTA 1 DEB now!
10-day predictions


NORAD ID: 42563
Int'l Code: 1972-058JW
Perigee: 806.6 km
Apogee: 1,175.6 km
Inclination: 98.8 °
Period: 104.8 minutes
Semi major axis: 7362 km
RCS: Unknown
Launch date: July 23, 1972
Source: United States (US)
Launch site: AIR FORCE WESTERN TEST RANGE (AFWTR)

Note: This is SATELLITE DEBRIS
Your satellite tracking list
Your tracking list is empty




NASA's NSSDC Master Catalog

Two Line Element Set (TLE):
1 42563U 72058JW  24325.38022041  .00001102  00000-0  96121-3 0  9994
2 42563  98.7645 117.5735 0250608 149.4986 212.1016 13.74365467544868
Source of the keplerian elements: AFSPC